Weather History for Billings, MT

Change the Weather History Date:

Tuesday, October 16, 2012

  Actual Average Record
Temperature  
Mean Temperature 55 °F 48 °F  
Max Temperature 65 °F 59 °F 86 °F (1991)
Min Temperature 44 °F 37 °F 19 °F (1976)
Degree Days  
Heating Degree Days 10 17  
Month to date heating degree days 244 227  
Since 1 July heating degree days 309 456  
Cooling Degree Days 0 0  
Month to date cooling degree days 3 0  
Year to date cooling degree days 958 633  
Growing Degree Days 4 (Base 50)    
Moisture  
Dew Point 34 °F    
Average Humidity 58    
Maximum Humidity 93    
Minimum Humidity 22    
Precipitation  
Precipitation T in 0.04 in 0.87 in (1994)
Month to date precipitation 0.75 0.70  
Year to date precipitation 5.83 12.05  
Snow  
Snow 0.00 in 0.10 in 5.20 in (1980)
Month to date snowfall 3.4 1.9  
Since 1 July snowfall 3.4 3.0  
Since 1 September snowfall 3.4 3.0  
Snow Depth 0.00 in    
Sea Level Pressure  
Sea Level Pressure 29.54 in    
Wind  
Wind Speed 18 mph (West)    
Max Wind Speed 45 mph    
Max Gust Speed 55 mph    
Visibility 10 miles    
Events Rain    
T = Trace of Precipitation, MM = Missing Value Source: NWS Daily Summary

Daily Weather History Graph

Daily Weather History Graph

Search for Another Location

Airport:

Trip Planner

Search our weather history database for the weather conditions in past years. The results will help you decide how hot, cold, wet, or windy it might be!

Date:

Astronomy

Oct. 16, 2012 Rise Set
Actual Time 7:32 AM MDT 6:25 PM MDT
Civil Twilight 7:02 AM MDT 6:55 PM MDT
Nautical Twilight 6:28 AM MDT 7:30 PM MDT
Astronomical Twilight 5:53 AM MDT 8:04 PM MDT
Moon 9:06 AM MDT (10/16) 7:04 PM MDT (10/16)
Length of Visible Light 11h 52m
Length of Day
10h 52m
New Moon, 2% of the Moon is Illuminated
Oct 16
New Moon
Oct 21
First Quarter
Oct 29
Full
Nov 6
Last Quarter
Nov 13
New

Hourly Weather History & Observations

Time (MDT) Temp. Windchill Dew Point Humidity Pressure Visibility Wind Dir Wind Speed Gust Speed Precip Events Conditions
12:53 AM 48.0 °F - 45.0 °F 89% 29.76 in 10.0 mi SSW 10.4 mph - N/A   Clear
1:53 AM 46.9 °F - 45.0 °F 93% 29.72 in 10.0 mi WSW 6.9 mph - N/A   Clear
2:53 AM 46.9 °F - 43.0 °F 86% 29.71 in 10.0 mi SW 11.5 mph - N/A   Clear
3:53 AM 46.0 °F 39.9 °F 39.9 °F 79% 29.67 in 10.0 mi WSW 13.8 mph - N/A   Clear
4:53 AM 46.9 °F - 39.9 °F 77% 29.61 in 10.0 mi WSW 11.5 mph - N/A   Clear
5:53 AM 44.6 °F 38.8 °F 39.2 °F 81% 29.60 in 10.0 mi WSW 11.5 mph - N/A   Scattered Clouds
6:53 AM 48.9 °F - 37.9 °F 66% 29.53 in 10.0 mi SW 11.5 mph - N/A   Scattered Clouds
7:53 AM 52.0 °F - 37.9 °F 59% 29.49 in 10.0 mi WSW 15.0 mph - N/A   Mostly Cloudy
8:53 AM 55.0 °F - 37.9 °F 53% 29.44 in 10.0 mi West 11.5 mph - N/A   Mostly Cloudy
9:53 AM 53.1 °F - 39.0 °F 59% 29.43 in 10.0 mi SW 6.9 mph - N/A   Mostly Cloudy
10:53 AM 55.9 °F - 39.9 °F 55% 29.38 in 10.0 mi Calm Calm - N/A   Mostly Cloudy
11:53 AM 62.1 °F - 41.0 °F 46% 29.38 in 10.0 mi SW 11.5 mph 25.3 mph N/A   Mostly Cloudy
12:29 PM 60.8 °F - 42.8 °F 52% 29.46 in 10.0 mi NW 35.7 mph 43.7 mph 0.00 in Rain Light Rain
12:53 PM 55.0 °F - 46.0 °F 72% 29.44 in 10.0 mi NW 31.1 mph 42.6 mph 0.00 in Rain Light Rain
1:53 PM 57.9 °F - 41.0 °F 53% 29.42 in 10.0 mi West 16.1 mph 25.3 mph 0.00 in   Mostly Cloudy
2:53 PM 59.0 °F - 39.9 °F 49% 29.40 in 10.0 mi WNW 17.3 mph - 0.00 in   Mostly Cloudy
3:53 PM 62.1 °F - 37.9 °F 41% 29.39 in 10.0 mi NW 10.4 mph - N/A   Mostly Cloudy
4:53 PM 59.0 °F - 28.0 °F 31% 29.43 in 10.0 mi WNW 27.6 mph 39.1 mph N/A   Mostly Cloudy
5:53 PM 55.0 °F - 18.0 °F 23% 29.48 in 10.0 mi NW 40.3 mph 50.6 mph N/A   Scattered Clouds
6:53 PM 52.0 °F - 19.0 °F 27% 29.54 in 10.0 mi WNW 25.3 mph 36.8 mph N/A   Partly Cloudy
7:53 PM 50.0 °F - 21.0 °F 32% 29.57 in 10.0 mi WNW 24.2 mph 31.1 mph N/A   Clear
8:53 PM 46.9 °F - 21.9 °F 37% 29.61 in 10.0 mi West 21.9 mph 28.8 mph N/A   Clear
9:53 PM 48.0 °F - 21.0 °F 34% 29.66 in 10.0 mi West 24.2 mph 32.2 mph N/A   Partly Cloudy
10:53 PM 48.0 °F - 19.9 °F 33% 29.70 in 10.0 mi WNW 28.8 mph 39.1 mph N/A   Scattered Clouds
11:53 PM 46.0 °F 37.2 °F 19.9 °F 35% 29.72 in 10.0 mi West 26.5 mph 35.7 mph N/A   Partly Cloudy